Location: Cerezo de Arriba
(41.2389°N, 3.5585°W)
Time: 15:58:13
(UTC+00:00)

Cosmos 220 Rocket - Pass Details

Date: 19 May 2025
Orbit: 546 x 580 km, 74.0° (Epoch: 22 June)

Event Time Altitude Azimuth Distance (km) Brightness Sun altitude
Exits shadow 21:58:07 60° 87° (E) 633 3.9 -21.5°
Drops below altitude 10° 22:01:53 10° 26° (NNE) 1,829 6.8 -21.9°
Sets 22:04:05 0° 23° (NNE) 2,724 7.8 -22.1°
